AFR58AU LFBD-LFLL

Flight info

Callsign AFR58AU
Flight time 0h 53m
Altitude 27000
Route OBLOC DCT SECHE DCT NARAK/N0370F280 DCT DITEV DCT MEN/N0363F260 DCT NINUN G53 MEZIN
Aircraft E170/M-SDE3GILORVWY/S

Departure

Time 2026-05-06 04:56
Airport Bordeaux–Mérignac Airport (LFBD)

Arrival

Time 2026-05-06 05:49
Airport Lyon Saint-Exupéry Airport (LFLL)
Time Latitude Longitude Altitude Speed Heading
2026-05-06 04:25 44.83187 -0.70360 165 ft 0 kts 135°
2026-05-06 04:48 44.83188 -0.70360 165 ft 1 kts 135°
2026-05-06 04:48 44.83203 -0.70381 165 ft 4 kts 135°
2026-05-06 04:49 44.83220 -0.70408 164 ft 4 kts 126°
2026-05-06 04:49 44.83232 -0.70439 164 ft 4 kts 106°
2026-05-06 04:49 44.83235 -0.70461 164 ft 1 kts 94°
2026-05-06 04:49 44.83235 -0.70464 164 ft 0 kts 94°
2026-05-06 04:52 44.83235 -0.70461 164 ft 1 kts 91°
2026-05-06 04:53 44.83238 -0.70448 164 ft 3 kts 60°
2026-05-06 04:53 44.83258 -0.70411 164 ft 7 kts 47°
2026-05-06 04:53 44.83302 -0.70348 163 ft 11 kts 45°
2026-05-06 04:53 44.83373 -0.70330 162 ft 12 kts 344°
2026-05-06 04:54 44.83438 -0.70270 162 ft 13 kts 46°
2026-05-06 04:54 44.83510 -0.70165 161 ft 17 kts 45°
2026-05-06 04:54 44.83597 -0.70038 160 ft 17 kts 45°
2026-05-06 04:54 44.83691 -0.70023 159 ft 16 kts 339°
2026-05-06 04:55 44.83789 -0.70088 158 ft 16 kts 322°
2026-05-06 04:55 44.83787 -0.70221 159 ft 9 kts 227°
2026-05-06 04:55 44.83725 -0.70306 160 ft 29 kts 225°
2026-05-06 04:55 44.83402 -0.70769 166 ft 102 kts 226°
2026-05-06 04:56 44.82761 -0.71673 272 ft 150 kts 224°
2026-05-06 04:56 44.81997 -0.72732 914 ft 153 kts 225°
2026-05-06 04:56 44.81255 -0.73809 715 ft 155 kts 226°
2026-05-06 04:56 44.80570 -0.74894 716 ft 143 kts 230°
2026-05-06 04:57 44.79942 -0.75959 837 ft 139 kts 232°
2026-05-06 04:57 44.79342 -0.77115 830 ft 147 kts 230°
2026-05-06 04:57 44.78530 -0.77965 773 ft 142 kts 211°
2026-05-06 04:57 44.77553 -0.78133 895 ft 150 kts 159°
2026-05-06 04:58 44.76698 -0.77221 1123 ft 160 kts 145°
2026-05-06 04:58 44.75834 -0.76202 1231 ft 169 kts 146°
2026-05-06 04:58 44.74873 -0.75105 1730 ft 188 kts 146°
2026-05-06 04:58 44.73833 -0.73893 2422 ft 200 kts 145°
2026-05-06 04:59 44.72725 -0.72606 3101 ft 216 kts 144°
2026-05-06 04:59 44.71515 -0.71201 3671 ft 235 kts 144°
2026-05-06 04:59 44.70214 -0.69685 4287 ft 251 kts 143°
2026-05-06 04:59 44.68833 -0.68081 4888 ft 265 kts 143°
2026-05-06 05:00 44.67537 -0.66162 5469 ft 280 kts 121°
2026-05-06 05:00 44.66934 -0.63548 6229 ft 285 kts 101°
2026-05-06 05:00 44.66676 -0.60777 6919 ft 288 kts 96°
2026-05-06 05:00 44.66523 -0.57953 7598 ft 291 kts 94°
2026-05-06 05:01 44.66430 -0.55101 8267 ft 294 kts 90°
2026-05-06 05:01 44.66482 -0.52222 8942 ft 297 kts 87°
2026-05-06 05:01 44.66574 -0.49309 9601 ft 300 kts 87°
2026-05-06 05:01 44.66672 -0.46371 10151 ft 306 kts 86°
2026-05-06 05:02 44.66775 -0.43303 10411 ft 321 kts 86°
2026-05-06 05:02 44.66880 -0.40129 10884 ft 327 kts 86°
2026-05-06 05:02 44.66985 -0.36937 11488 ft 329 kts 86°
2026-05-06 05:02 44.67091 -0.33708 12110 ft 332 kts 86°
2026-05-06 05:03 44.67182 -0.30925 12654 ft 334 kts 86°
2026-05-06 05:03 44.67288 -0.27651 13301 ft 337 kts 86°
2026-05-06 05:03 44.67394 -0.24355 13947 ft 339 kts 86°
2026-05-06 05:03 44.67493 -0.21036 14558 ft 342 kts 88°
2026-05-06 05:04 44.67194 -0.17698 15150 ft 346 kts 102°
2026-05-06 05:04 44.66552 -0.14421 15772 ft 350 kts 107°
2026-05-06 05:04 44.65771 -0.11179 16397 ft 353 kts 109°
2026-05-06 05:04 44.64926 -0.07923 17025 ft 356 kts 110°
2026-05-06 05:05 44.63929 -0.04729 17659 ft 359 kts 115°
2026-05-06 05:05 44.62834 -0.01558 18300 ft 363 kts 115°
2026-05-06 05:05 44.61705 0.01641 18883 ft 366 kts 115°
2026-05-06 05:05 44.60580 0.04811 19462 ft 369 kts 115°
2026-05-06 05:06 44.59417 0.08086 19598 ft 372 kts 117°
2026-05-06 05:06 44.58289 0.11273 20808 ft 372 kts 115°
2026-05-06 05:06 44.57116 0.14559 21217 ft 379 kts 115°
2026-05-06 05:06 44.55935 0.17871 21791 ft 382 kts 115°
2026-05-06 05:07 44.54741 0.21212 22373 ft 385 kts 115°
2026-05-06 05:07 44.53538 0.24583 22952 ft 388 kts 115°
2026-05-06 05:07 44.52323 0.27979 23523 ft 391 kts 115°
2026-05-06 05:07 44.51101 0.31393 23995 ft 394 kts 115°
2026-05-06 05:08 44.49865 0.34842 24475 ft 397 kts 116°
2026-05-06 05:08 44.48619 0.38312 24947 ft 400 kts 116°
2026-05-06 05:08 44.47363 0.41807 25432 ft 404 kts 116°
2026-05-06 05:08 44.46092 0.45339 25879 ft 408 kts 116°
2026-05-06 05:09 44.44954 0.48984 26294 ft 410 kts 108°
2026-05-06 05:09 44.44114 0.52814 26719 ft 413 kts 105°
2026-05-06 05:09 44.43393 0.56617 26837 ft 393 kts 102°
2026-05-06 05:09 44.42906 0.60331 26887 ft 391 kts 98°
2026-05-06 05:10 44.42459 0.64157 26934 ft 406 kts 98°
2026-05-06 05:10 44.42016 0.68103 26950 ft 415 kts 98°
2026-05-06 05:10 44.41566 0.72105 26940 ft 417 kts 98°
2026-05-06 05:10 44.41115 0.76108 26929 ft 416 kts 98°
2026-05-06 05:11 44.40665 0.80100 26926 ft 416 kts 98°
2026-05-06 05:11 44.40212 0.84098 26936 ft 417 kts 98°
2026-05-06 05:11 44.39757 0.88102 26932 ft 417 kts 98°
2026-05-06 05:11 44.39301 0.92099 26925 ft 416 kts 98°
2026-05-06 05:12 44.38844 0.96090 26932 ft 416 kts 98°
2026-05-06 05:12 44.38385 1.00093 26933 ft 417 kts 99°
2026-05-06 05:12 44.37924 1.04093 26920 ft 417 kts 99°
2026-05-06 05:12 44.37463 1.08088 26925 ft 417 kts 99°
2026-05-06 05:13 44.37000 1.12086 26933 ft 417 kts 99°
2026-05-06 05:13 44.36534 1.16088 26926 ft 417 kts 99°
2026-05-06 05:13 44.36068 1.20087 26923 ft 417 kts 99°
2026-05-06 05:13 44.35601 1.24081 26924 ft 417 kts 99°
2026-05-06 05:14 44.35131 1.28078 26932 ft 418 kts 99°
2026-05-06 05:14 44.34660 1.32088 26926 ft 417 kts 99°
2026-05-06 05:14 44.34188 1.36083 26920 ft 417 kts 99°
2026-05-06 05:14 44.33714 1.40080 26925 ft 417 kts 99°
2026-05-06 05:15 44.33239 1.44078 26925 ft 417 kts 100°
2026-05-06 05:15 44.32763 1.48068 26925 ft 417 kts 100°
2026-05-06 05:15 44.32285 1.52070 26921 ft 417 kts 100°
2026-05-06 05:15 44.31806 1.56065 26923 ft 417 kts 100°
2026-05-06 05:16 44.31326 1.60050 26921 ft 417 kts 100°
2026-05-06 05:16 44.30849 1.64002 26920 ft 417 kts 100°
2026-05-06 05:16 44.30522 1.66699 26920 ft 417 kts 100°
2026-05-06 05:16 44.30088 1.70704 26921 ft 418 kts 95°
2026-05-06 05:17 44.30155 1.76073 26927 ft 419 kts 85°
2026-05-06 05:17 44.30360 1.78804 26922 ft 419 kts 83°
2026-05-06 05:17 44.30897 1.82804 26918 ft 419 kts 78°
2026-05-06 05:17 44.31744 1.88063 26919 ft 420 kts 77°
2026-05-06 05:18 44.32406 1.92034 26920 ft 420 kts 77°
2026-05-06 05:18 44.32855 1.94720 26915 ft 420 kts 77°
2026-05-06 05:18 44.33517 1.98680 26919 ft 420 kts 77°
2026-05-06 05:18 44.34179 2.02658 26918 ft 421 kts 77°
2026-05-06 05:19 44.34841 2.06646 26919 ft 420 kts 77°
2026-05-06 05:19 44.35500 2.10625 26909 ft 420 kts 77°
2026-05-06 05:19 44.36158 2.14606 26911 ft 420 kts 77°
2026-05-06 05:19 44.36805 2.18530 26920 ft 420 kts 77°
2026-05-06 05:20 44.37457 2.22498 26913 ft 421 kts 78°
2026-05-06 05:20 44.38112 2.26491 26915 ft 420 kts 78°
2026-05-06 05:20 44.38765 2.30473 26912 ft 420 kts 78°
2026-05-06 05:20 44.39415 2.34457 26911 ft 421 kts 78°
2026-05-06 05:21 44.40066 2.38453 26913 ft 421 kts 78°
2026-05-06 05:21 44.40714 2.42440 26917 ft 421 kts 78°
2026-05-06 05:21 44.41361 2.46430 26916 ft 421 kts 78°
2026-05-06 05:21 44.42007 2.50421 26909 ft 421 kts 78°
2026-05-06 05:22 44.42651 2.54416 26916 ft 421 kts 78°
2026-05-06 05:22 44.43297 2.58424 26916 ft 421 kts 78°
2026-05-06 05:22 44.44004 2.62393 26905 ft 422 kts 72°
2026-05-06 05:22 44.45092 2.66197 26916 ft 422 kts 69°
2026-05-06 05:23 44.45997 2.70112 26915 ft 422 kts 75°
2026-05-06 05:23 44.46734 2.74079 26909 ft 421 kts 77°
2026-05-06 05:23 44.48791 2.81749 26916 ft 423 kts 62°
2026-05-06 05:24 44.50227 2.85341 26911 ft 423 kts 60°
2026-05-06 05:24 44.51703 2.88898 26910 ft 423 kts 60°
2026-05-06 05:24 44.53035 2.92569 26909 ft 423 kts 65°
2026-05-06 05:24 44.54291 2.96293 26909 ft 423 kts 65°
2026-05-06 05:25 44.55510 2.99987 26906 ft 423 kts 66°
2026-05-06 05:25 44.56755 3.03776 26904 ft 422 kts 66°
2026-05-06 05:25 44.57964 3.07465 26904 ft 422 kts 66°
2026-05-06 05:25 44.59190 3.11207 26897 ft 422 kts 66°
2026-05-06 05:26 44.60414 3.14950 26902 ft 422 kts 65°
2026-05-06 05:26 44.61052 3.16703 26906 ft 422 kts 62°
2026-05-06 05:26 44.62475 3.20299 26900 ft 422 kts 62°
2026-05-06 05:27 44.63910 3.23899 26899 ft 422 kts 61°
2026-05-06 05:27 44.65351 3.27485 26904 ft 422 kts 61°
2026-05-06 05:27 44.66788 3.31066 26899 ft 421 kts 61°
2026-05-06 05:27 44.68227 3.34655 26896 ft 421 kts 61°
2026-05-06 05:28 44.69663 3.38243 26897 ft 421 kts 61°
2026-05-06 05:28 44.71097 3.41834 26895 ft 421 kts 62°
2026-05-06 05:28 44.72529 3.45421 26637 ft 421 kts 62°
2026-05-06 05:28 44.73960 3.49014 26211 ft 422 kts 62°
2026-05-06 05:29 44.75308 3.52402 25842 ft 423 kts 62°
2026-05-06 05:29 44.76740 3.56002 25435 ft 420 kts 62°
2026-05-06 05:29 44.78156 3.59570 25044 ft 415 kts 62°
2026-05-06 05:29 44.79557 3.63103 24649 ft 411 kts 62°
2026-05-06 05:30 44.80943 3.66604 24261 ft 407 kts 62°
2026-05-06 05:30 44.82313 3.70068 23879 ft 403 kts 62°
2026-05-06 05:30 44.83670 3.73504 23507 ft 400 kts 62°
2026-05-06 05:30 44.85013 3.76908 23072 ft 396 kts 62°
2026-05-06 05:31 44.86346 3.80291 22625 ft 393 kts 62°
2026-05-06 05:31 44.87666 3.83647 22183 ft 391 kts 62°
2026-05-06 05:31 44.88981 3.86989 21680 ft 388 kts 62°
2026-05-06 05:31 44.90284 3.90310 21145 ft 384 kts 62°
2026-05-06 05:32 44.91572 3.93594 20623 ft 381 kts 62°
2026-05-06 05:32 44.92849 3.96853 20118 ft 378 kts 62°
2026-05-06 05:32 44.94116 4.00092 19721 ft 376 kts 62°
2026-05-06 05:32 44.95378 4.03320 19352 ft 375 kts 62°
2026-05-06 05:33 44.96634 4.06538 18984 ft 374 kts 62°
2026-05-06 05:33 44.97888 4.09755 18658 ft 373 kts 62°
2026-05-06 05:33 44.99134 4.12955 18346 ft 371 kts 62°
2026-05-06 05:33 45.00348 4.16177 18024 ft 370 kts 64°
2026-05-06 05:34 45.01477 4.19439 17657 ft 369 kts 65°
2026-05-06 05:34 45.02464 4.22772 17275 ft 367 kts 71°
2026-05-06 05:34 45.03327 4.26155 16906 ft 365 kts 71°
2026-05-06 05:34 45.04156 4.29509 16540 ft 363 kts 72°
2026-05-06 05:35 45.04986 4.32896 16165 ft 361 kts 72°
2026-05-06 05:35 45.05802 4.36239 15808 ft 359 kts 72°
2026-05-06 05:35 45.06617 4.39574 15457 ft 357 kts 72°
2026-05-06 05:35 45.07424 4.42883 15098 ft 355 kts 72°
2026-05-06 05:36 45.08229 4.46188 14754 ft 353 kts 72°
2026-05-06 05:36 45.09028 4.49469 14409 ft 352 kts 72°
2026-05-06 05:36 45.09821 4.52733 14076 ft 350 kts 72°
2026-05-06 05:36 45.10599 4.55938 13739 ft 348 kts 72°
2026-05-06 05:37 45.11327 4.58943 13398 ft 347 kts 72°
2026-05-06 05:37 45.12108 4.62172 13019 ft 345 kts 72°
2026-05-06 05:37 45.12884 4.65384 12642 ft 343 kts 71°
2026-05-06 05:37 45.13654 4.68573 12278 ft 341 kts 71°
2026-05-06 05:38 45.14407 4.71700 11918 ft 340 kts 71°
2026-05-06 05:38 45.15179 4.74908 11464 ft 338 kts 71°
2026-05-06 05:38 45.15929 4.78028 11005 ft 331 kts 71°
2026-05-06 05:38 45.16932 4.80902 10525 ft 324 kts 51°
2026-05-06 05:39 45.18542 4.83068 10075 ft 313 kts 37°
2026-05-06 05:39 45.20306 4.84715 9686 ft 297 kts 29°
2026-05-06 05:39 45.22101 4.86074 9267 ft 290 kts 25°
2026-05-06 05:39 45.23977 4.87110 8873 ft 289 kts 17°
2026-05-06 05:40 45.25840 4.88087 8498 ft 292 kts 24°
2026-05-06 05:40 45.27621 4.89442 8117 ft 291 kts 30°
2026-05-06 05:40 45.29316 4.90992 7729 ft 287 kts 33°
2026-05-06 05:40 45.30939 4.92605 7352 ft 283 kts 36°
2026-05-06 05:41 45.32413 4.94358 6967 ft 270 kts 40°
2026-05-06 05:41 45.33787 4.96113 6541 ft 261 kts 41°
2026-05-06 05:41 45.35108 4.97827 6103 ft 254 kts 41°
2026-05-06 05:41 45.36397 4.99508 5662 ft 248 kts 41°
2026-05-06 05:42 45.37652 5.01142 5261 ft 243 kts 41°
2026-05-06 05:42 45.38894 5.02759 4871 ft 241 kts 41°
2026-05-06 05:42 45.40108 5.04394 4486 ft 239 kts 43°
2026-05-06 05:42 45.41337 5.05966 4088 ft 236 kts 40°
2026-05-06 05:43 45.42552 5.07513 3704 ft 234 kts 42°
2026-05-06 05:43 45.43732 5.09055 3495 ft 224 kts 42°
2026-05-06 05:43 45.44660 5.10275 3340 ft 214 kts 42°
2026-05-06 05:43 45.45722 5.11611 3133 ft 206 kts 34°
2026-05-06 05:44 45.47020 5.12310 3044 ft 197 kts
2026-05-06 05:44 45.48363 5.12201 3011 ft 192 kts 352°
2026-05-06 05:44 45.49699 5.12046 2988 ft 194 kts 355°
2026-05-06 05:44 45.51042 5.11925 3009 ft 193 kts 353°
2026-05-06 05:45 45.52378 5.11748 3001 ft 194 kts 353°
2026-05-06 05:45 45.53726 5.11587 2990 ft 193 kts 353°
2026-05-06 05:45 45.55062 5.11430 3021 ft 192 kts 353°
2026-05-06 05:45 45.56336 5.11273 3025 ft 177 kts 352°
2026-05-06 05:46 45.57541 5.11126 3010 ft 171 kts 353°
2026-05-06 05:46 45.58718 5.10984 3020 ft 171 kts 353°
2026-05-06 05:46 45.59902 5.10840 3020 ft 170 kts 353°
2026-05-06 05:46 45.61102 5.10695 2780 ft 174 kts 353°
2026-05-06 05:47 45.62286 5.10550 2591 ft 165 kts 353°
2026-05-06 05:47 45.63404 5.10415 2397 ft 161 kts 353°
2026-05-06 05:47 45.64521 5.10279 2187 ft 156 kts 353°
2026-05-06 05:47 45.65570 5.10151 1980 ft 148 kts 353°
2026-05-06 05:48 45.66552 5.10032 1766 ft 141 kts 354°
2026-05-06 05:48 45.67517 5.09915 1573 ft 138 kts 354°
2026-05-06 05:48 45.68468 5.09798 1404 ft 137 kts 354°
2026-05-06 05:48 45.69415 5.09683 1210 ft 136 kts 353°
2026-05-06 05:49 45.70355 5.09567 1015 ft 135 kts 354°
2026-05-06 05:49 45.71289 5.09459 849 ft 134 kts 354°
2026-05-06 05:49 45.72137 5.09349 814 ft 94 kts 356°
2026-05-06 05:49 45.72584 5.09306 807 ft 39 kts 354°
2026-05-06 05:50 45.72823 5.09219 800 ft 33 kts 330°
2026-05-06 05:50 45.72932 5.09112 796 ft 14 kts 325°
2026-05-06 05:50 45.72970 5.08991 791 ft 15 kts 269°
2026-05-06 05:50 45.72964 5.08835 789 ft 16 kts 266°
2026-05-06 05:51 45.72956 5.08703 789 ft 12 kts 264°
2026-05-06 05:51 45.72947 5.08584 789 ft 12 kts 264°
2026-05-06 05:51 45.72939 5.08475 788 ft 9 kts 263°
2026-05-06 05:51 45.72916 5.08392 787 ft 9 kts 223°
2026-05-06 05:52 45.72862 5.08356 788 ft 8 kts 182°
2026-05-06 05:52 45.72806 5.08360 789 ft 8 kts 174°
2026-05-06 05:52 45.72753 5.08368 789 ft 8 kts 173°
2026-05-06 05:52 45.72702 5.08373 789 ft 8 kts 178°
2026-05-06 05:53 45.72650 5.08377 790 ft 7 kts 176°
2026-05-06 05:53 45.72610 5.08382 791 ft 4 kts 175°
2026-05-06 05:53 45.72589 5.08384 793 ft 3 kts 175°
2026-05-06 05:53 45.72556 5.08388 794 ft 7 kts 175°
2026-05-06 05:54 45.72488 5.08399 794 ft 11 kts 172°
2026-05-06 05:54 45.72418 5.08409 795 ft 10 kts 177°
2026-05-06 05:54 45.72355 5.08413 796 ft 8 kts 176°
2026-05-06 05:54 45.72301 5.08418 797 ft 7 kts 175°
2026-05-06 05:55 45.72251 5.08425 797 ft 7 kts 174°
2026-05-06 05:55 45.72205 5.08432 798 ft 6 kts 174°
2026-05-06 05:55 45.72170 5.08437 799 ft 4 kts 175°
2026-05-06 05:55 45.72146 5.08440 800 ft 3 kts 174°
2026-05-06 05:56 45.72113 5.08444 801 ft 7 kts 175°
2026-05-06 05:56 45.72052 5.08451 800 ft 11 kts 175°
2026-05-06 05:56 45.71956 5.08462 800 ft 16 kts 176°
2026-05-06 05:56 45.71845 5.08475 800 ft 15 kts 175°
2026-05-06 05:57 45.71745 5.08488 800 ft 13 kts 177°
2026-05-06 05:57 45.71688 5.08455 799 ft 7 kts 254°
2026-05-06 05:57 45.71694 5.08401 798 ft 4 kts 326°
2026-05-06 05:57 45.71716 5.08392 798 ft 3 kts 352°
2026-05-06 05:58 45.71748 5.08389 798 ft 4 kts 356°
2026-05-06 05:58 45.71763 5.08387 797 ft 0 kts 354°